User: anonymous   Login
Location: Vancouver
(49.2500°N, 123.1330°W)
Time: 21:55:47
(UTC-07:00)
Language:

CZ-2C R/B - Orbit

View from above orbital plane
View from above orbital plane
View from above satellite
View from above satellite

Ground track
Ground track

The orbit data is extracted from the following two-line orbital elements,

1 28480U 04046B   15186.15710449  .00000130  00000-0  64629-4 0  9993
2 28480 098.1429 318.8111 0142585 169.1367 319.9334 14.25513370552643
Epoch (UTC): 05 July 2015 03:46:13
Eccentricity: 0.0142585
inclination: 98.1429°
perigee height: 704 km
apogee height: 909 km
right ascension of ascending node: 318.8111°
argument of perigee: 169.1367°
revolutions per day: 14.25513370
mean anomaly at epoch: 319.9334°
orbit number at epoch: 55264

The dashed part of the orbit path shows where the satellite is in the earth's shadow,  

DLR